Weather Roundup
Issued by NWS

Home | Current Version | Previous Version | Text Only | Print | Product List | Glossary On
Versions: 1 2 3 4 5 6 7 8 9 10 11 12 13 14 15 16 17 18 19 20 21 22 23 24 25 26 27 28 29 30 31 32 33 34 35 36 37 38 39 40 41 42 43 44 45 46 47 48 49 50
689
NZUS93 KARX 251410
HRRWXR

CURRENT HOURLY OBSERVATIONS ACROSS
MUCH OF THE UPPER MISSISSIPPI VALLEY
NATIONAL WEATHER SERVICE LA CROSSE WI
900 AM CDT THU MAY 25 2017


...SOUTHEAST MINNESOTA...


CITY           SKY/WX    TMP DP  RH WIND       PRES   REMARKS
ROCHESTER      SUNNY     55  50  83 E6        29.74S
ROCHESTER/MAYO NOT AVBL
WINONA         CLOUDY    52  52 100 CALM      29.74R FOG
AUSTIN         MOSUNNY   55  50  82 CALM      29.72S
ALBERT LEA     MOSUNNY   55  52  88 SE7       29.72S
DODGE CENTER   SUNNY     55  48  76 SE5       29.73R
PRESTON        CLOUDY    53  47  81 NE5       29.73S
OWATONNA       SUNNY     55  50  82 SE6       29.73R
FARIBAULT      MOSUNNY   54  52  94 E5        29.73R
$$

...ELSEWHERE IN MINNESOTA...


CITY           SKY/WX    TMP DP  RH WIND       PRES   REMARKS
MINNEAPOLIS    MOSUNNY   58  50  75 S6        29.72S
INTNL FALLS    SUNNY     56  44  64 SE9       29.71F
DULUTH         PTSUNNY   49  45  86 SE7       29.75S
RED WING       SUNNY     57  48  72 SE5       29.72S
REDWOOD FALLS  SUNNY     59  48  67 S21       29.64F
MANKATO        NOT AVBL
WORTHINGTON    SUNNY     56  49  77 S15       29.67F
FAIRMONT       SUNNY     58  51  78 S10       29.71R
$$

...SOUTHWEST WISCONSIN...


CITY           SKY/WX    TMP DP  RH WIND       PRES   REMARKS
LA CROSSE      CLOUDY    56  52  86 NW7       29.73R
PRAIRIE DU CHI CLOUDY    55  48  77 NW6       29.71S
BOSCOBEL       CLOUDY    57  50  77 VRB5      29.71R
LONE ROCK      CLOUDY    55  49  80 N6        29.71R
PLATTEVILLE    CLOUDY    54  53  96 N7        29.70S
FORT MC COY    CLOUDY    54  50  88 N3        29.73R
CAMP DOUGLAS   PTSUNNY   57  50  77 CALM      29.70S
MAUSTON-NEW LI CLOUDY    55  50  83 CALM      29.70R
VIROQUA        CLOUDY    53  50  87 MISG      29.71S
WIS DELLS      CLOUDY    53  49  85 NW5       29.70R
$$

...ELSEWHERE IN WISCONSIN...


CITY           SKY/WX    TMP DP  RH WIND       PRES   REMARKS
MILWAUKEE      CLOUDY    57  52  83 N9        29.64R
MADISON        CLOUDY    54  50  86 N10       29.67R
GREEN BAY      MOSUNNY   58  53  84 NE14      29.69R
EAU CLAIRE     MOSUNNY   59  49  69 E5        29.73R
BLACK RVR FLS  CLOUDY    52  52 100 CALM      29.72F
MEDFORD        SUNNY     57  50  78 NE6       29.72S
WAUSAU         SUNNY     59  50  72 E7        29.69F
WIS RAPIDS     SUNNY     60  50  69 NE8       29.71S
MARSHFIELD     SUNNY     58  50  75 E5        29.70S
RICE LAKE      SUNNY     57  48  73 CALM      29.75S
$$

...NORTHEAST IOWA...


CITY           SKY/WX    TMP DP  RH WIND       PRES   REMARKS
WATERLOO       PTSUNNY   57  50  77 VRB3      29.72S
DUBUQUE        CLOUDY    53  50  89 N9        29.70R
DECORAH        CLOUDY    52  48  87 NE3       29.72R
MASON CITY     MOSUNNY   55  50  83 SE8       29.73R
CHARLES CITY   MOSUNNY   55  52  88 CALM      29.74R
OELWEIN        CLOUDY    52  52 100 CALM      29.73R
$$

...ELSEWHERE IN IOWA...


CITY           SKY/WX    TMP DP  RH WIND       PRES   REMARKS
DES MOINES     MOSUNNY   58  49  72 E8        29.71S
IOWA CITY      MOSUNNY   59  51  75 VRB3      29.72F
FORT DODGE     SUNNY     59  52  77 S6        29.72R
MARSHALLTOWN   SUNNY     56  52  86 SE7       29.71S
CEDAR RAPIDS   MOSUNNY   55  52  89 VRB3      29.71R
$$

...NORTHERN ILLINOIS...


CITY           SKY/WX    TMP DP  RH WIND       PRES   REMARKS
CHICAGO-OHARE  CLOUDY    57  51  80 N13       29.61R
CHICAGO-MIDWAY CLOUDY    57  52  83 N13       29.61R
MOLINE         CLOUDY    56  50  80 N7        29.69R
ROCKFORD       CLOUDY    56  51  84 N10       29.67R
PEORIA         CLOUDY    56  52  86 NW8       29.68R
$$

NOTE: "FAIR" INDICATES FEW OR NO CLOUDS BELOW 12,000 FEET WITH NO
SIGNIFICANT WEATHER AND/OR OBSTRUCTIONS TO VISIBILITY. WIND
SPEEDS ARE IN MILES-PER-HOUR.




USA.gov is the U.S. government's official web portal to all federal, state and local government web resources and services.